This demonstration page uses our WeatherBlox Daily Observations layout. Learn more.

Left ArrowRight Arrow

34.16533, -84.80231

Hourly Observations for April 24, 2016

Temp ( °F °C ) Dew Point ( °F °C ) Humidity (%) Winds ( mph kmh ) Pressure ( in mb ) Visibility ( mi km ) Precip ( " mm )
12:53 am 00:53 Clear 52 11.1 50 10 93 93 Calm 29.99 1016 10 16 0.00 0.00
1:53 am 01:53 Clear 52 11.1 50 10 93 93 Calm 29.99 1016 10 16 0.00 0.00
2:53 am 02:53 Clear 51 10.6 49 9.4 92 92 Calm 29.99 1016 10 16 0.00 0.00
3:53 am 03:53 Clear 48 8.9 47 8.3 96 96 Calm 29.99 1016 10 16 0.00 0.00
4:53 am 04:53 Clear 47 8.3 47 8.3 100 100 Calm 30.01 1016 9 14 0.00 0.00
5:53 am 05:53 Clear 46 7.8 46 7.8 100 100 Calm 30.03 1017 10 16 0.00 0.00
6:53 am 06:53 Clear 46 7.8 45 7.2 96 96 Calm 30.04 1017 10 16 0.00 0.00
7:53 am 07:53 Sunny 49 9.4 48 8.9 97 97 Calm 30.07 1018 10 16 0.00 0.00
8:53 am 08:53 Sunny 58 14.4 52 11.1 81 81 Calm 30.09 1019 10 16 0.00 0.00
9:53 am 09:53 Sunny 64 17.8 54 12.2 70 70 VRB 3 6 30.09 1019 10 16 0.00 0.00
10:53 am 10:53 Sunny 69 20.6 51 10.6 53 53 SE 8 13 30.09 1019 10 16 0.00 0.00
11:53 am 11:53 Sunny 72 22.2 51 10.6 48 48 undefined N/A 30.08 1019 10 16 0.00 0.00
12:53 pm 12:53 Sunny 75 23.9 52 11.1 45 45 SE 7 11 30.06 1018 10 16 0.00 0.00
1:53 pm 13:53 Sunny 77 25 51 10.6 40 40 E 5 7 30.03 1017 10 16 0.00 0.00
2:53 pm 14:53 Sunny 78 25.6 49 9.4 36 36 VRB 3 6 30.00 1016 10 16 0.00 0.00
3:53 pm 15:53 Sunny 79 26.1 51 10.6 38 38 VRB 6 9 29.98 1015 10 16 0.00 0.00
4:53 pm 16:53 Sunny 80 26.7 50 10 35 35 Calm 29.97 1015 10 16 0.00 0.00
5:53 pm 17:53 Sunny 79 26.1 51 10.6 38 38 S 6 9 29.97 1015 10 16 0.00 0.00
6:53 pm 18:53 Sunny 77 25 51 10.6 40 40 S 5 7 29.96 1015 10 16 0.00 0.00
7:53 pm 19:53 Sunny 70 21.1 55 12.8 59 59 SSE 3 6 29.96 1015 10 16 0.00 0.00
8:53 pm 20:53 Clear 63 17.2 56 13.3 78 78 S 5 7 29.98 1015 10 16 0.00 0.00
9:53 pm 21:53 Clear 61 16.1 55 12.8 81 81 SSE 6 9 29.99 1016 10 16 0.00 0.00
10:53 pm 22:53 Clear 59 15 55 12.8 87 87 SSE 5 7 30.01 1016 10 16 0.00 0.00
11:53 pm 23:53 Clear 57 13.9 54 12.2 90 90 Calm 30.01 1016 10 16 0.00 0.00

Powered by AerisWeather